When you browse on this site, cookies collect data to enhance your experience and personalize the content and advertising you see.
Visit our Privacy Policy to learn more. By continuing to use the site, you agree to this use of cookies and data.
  • en Belgique
  • Liste des pays
  • À 7 jours
  • Température de l'eau
  • Carte satellitaire
  • Carte météo
  • Widgets météo
  • user-avatar
    Se connecter

    Météo par heure à Brugges

    Ce jour, 17 Janvier, Jeudi

    Heure Température Précipitation Vent Pression Humidité
    00:00 +5°C° 0 mm 4 m/s 751 mmHg 83%
    01:00 +4°C° 0 mm 4 m/s 751 mmHg 84%
    02:00 +4°C° 0 mm 4 m/s 751 mmHg 85%
    03:00 +3°C° 0 mm 4 m/s 751 mmHg 86%
    04:00 +2°C° 0.1 mm 5 m/s 751 mmHg 88%
    05:00 +2°C° 0.1 mm 5 m/s 751 mmHg 89%
    06:00 +2°C° 0.1 mm 5 m/s 750 mmHg 90%
    07:00 +3°C° 0.3 mm 6 m/s 751 mmHg 88%
    08:00 +3°C° 0.3 mm 7 m/s 751 mmHg 85%
    09:00 +4°C° 0.3 mm 7 m/s 751 mmHg 82%
    10:00 +4°C° 0.2 mm 8 m/s 752 mmHg 77%
    11:00 +3°C° 0.2 mm 9 m/s 753 mmHg 73%
    12:00 +3°C° 0.2 mm 9 m/s 753 mmHg 68%
    13:00 +3°C° 0.2 mm 9 m/s 754 mmHg 66%
    14:00 +2°C° 0.2 mm 9 m/s 755 mmHg 65%
    15:00 +2°C° 0.2 mm 9 m/s 756 mmHg 63%
    16:00 +2°C° 0.2 mm 9 m/s 757 mmHg 63%
    17:00 +2°C° 0.2 mm 8 m/s 757 mmHg 62%
    18:00 +3°C° 0.2 mm 7 m/s 758 mmHg 61%
    19:00 +2°C° 0.1 mm 7 m/s 759 mmHg 62%
    20:00 +2°C° 0.1 mm 7 m/s 759 mmHg 63%
    21:00 +2°C° 0.1 mm 6 m/s 760 mmHg 65%
    22:00 +2°C° 0 mm 6 m/s 761 mmHg 66%
    23:00 +2°C° 0 mm 5 m/s 761 mmHg 67%

    Demain, 18 Janvier, Vendredi

    Heure Température Précipitation Vent Pression Humidité
    00:00 +1°C° 0 mm 4 m/s 762 mmHg 68%
    01:00 +1°C° 0 mm 4 m/s 762 mmHg 68%
    02:00 +2°C° 0 mm 3 m/s 762 mmHg 67%
    03:00 +3°C° 0 mm 2 m/s 763 mmHg 67%
    04:00 +3°C° 0 mm 2 m/s 763 mmHg 67%
    05:00 +3°C° 0 mm 1 m/s 763 mmHg 68%
    06:00 +3°C° 0 mm 1 m/s 763 mmHg 68%
    07:00 +3°C° 0 mm 1 m/s 763 mmHg 71%
    08:00 +3°C° 0 mm 1 m/s 763 mmHg 74%
    09:00 +2°C° 0 mm 2 m/s 763 mmHg 77%
    10:00 +3°C° 0 mm 2 m/s 763 mmHg 74%
    11:00 +4°C° 0 mm 2 m/s 764 mmHg 72%
    12:00 +5°C° 0 mm 2 m/s 764 mmHg 70%
    13:00 +5°C° 0 mm 2 m/s 763 mmHg 71%
    14:00 +5°C° 0 mm 2 m/s 763 mmHg 73%
    15:00 +5°C° 0 mm 2 m/s 763 mmHg 75%
    16:00 +3°C° 0 mm 3 m/s 763 mmHg 77%
    17:00 +2°C° 0 mm 3 m/s 763 mmHg 79%
    18:00 +1°C° 0 mm 3 m/s 763 mmHg 82%
    19:00 0°C° 0 mm 4 m/s 763 mmHg 82%
    20:00 0°C° 0 mm 4 m/s 763 mmHg 83%
    21:00 -1°C° 0 mm 4 m/s 762 mmHg 83%
    22:00 -1°C° 0 mm 4 m/s 762 mmHg 82%
    23:00 -1°C° 0 mm 4 m/s 762 mmHg 82%

    Après-demain, 19 Janvier, Samedi

    Heure Température Précipitation Vent Pression Humidité
    00:00 -2°C° 0 mm 5 m/s 762 mmHg 81%
    01:00 -2°C° 0 mm 5 m/s 761 mmHg 80%
    02:00 -2°C° 0 mm 5 m/s 761 mmHg 79%
    03:00 -2°C° 0 mm 5 m/s 761 mmHg 78%
    04:00 -2°C° 0 mm 5 m/s 760 mmHg 78%
    05:00 -2°C° 0 mm 5 m/s 760 mmHg 77%
    06:00 -4°C° 0 mm 5 m/s 760 mmHg 76%
    07:00 -3°C° 0 mm 6 m/s 760 mmHg 74%
    08:00 -3°C° 0 mm 6 m/s 760 mmHg 73%
    09:00 -3°C° 0 mm 6 m/s 759 mmHg 71%
    10:00 -2°C° 0 mm 6 m/s 759 mmHg 70%
    11:00 -1°C° 0 mm 6 m/s 759 mmHg 68%
    12:00 +1°C° 0 mm 6 m/s 758 mmHg 67%
    13:00 +1°C° 0.3 mm 6 m/s 758 mmHg 70%
    14:00 0°C° 0.3 mm 5 m/s 758 mmHg 72%
    15:00 0°C° 0.3 mm 5 m/s 757 mmHg 75%
    16:00 0°C° 0.2 mm 5 m/s 757 mmHg 75%
    17:00 0°C° 0.2 mm 5 m/s 757 mmHg 74%
    18:00 0°C° 0.2 mm 4 m/s 757 mmHg 74%
    19:00 0°C° 0 mm 4 m/s 758 mmHg 75%
    20:00 0°C° 0 mm 4 m/s 758 mmHg 76%
    21:00 0°C° 0 mm 4 m/s 758 mmHg 76%
    22:00 0°C° 0 mm 4 m/s 758 mmHg 78%
    23:00 0°C° 0 mm 4 m/s 758 mmHg 79%

    20 Janvier, Dimanche

    Heure Température Précipitation Vent Pression Humidité
    00:00 0°C° 0 mm 3 m/s 758 mmHg 81%
    01:00 0°C° 0 mm 3 m/s 758 mmHg 82%
    02:00 0°C° 0 mm 3 m/s 758 mmHg 83%
    03:00 -1°C° 0 mm 3 m/s 758 mmHg 84%
    04:00 -1°C° 0 mm 3 m/s 758 mmHg 85%
    05:00 -1°C° 0 mm 3 m/s 758 mmHg 86%
    06:00 -2°C° 0 mm 3 m/s 758 mmHg 87%
    07:00 -1°C° 0 mm 3 m/s 758 mmHg 87%
    08:00 -1°C° 0 mm 3 m/s 759 mmHg 86%
    09:00 -1°C° 0 mm 3 m/s 759 mmHg 86%
    10:00 0°C° 0 mm 3 m/s 759 mmHg 85%
    11:00 +1°C° 0 mm 3 m/s 760 mmHg 84%
    12:00 +2°C° 0 mm 3 m/s 760 mmHg 83%
    13:00 +3°C° 0.1 mm 3 m/s 760 mmHg 86%
    14:00 +3°C° 0.1 mm 3 m/s 760 mmHg 88%
    15:00 +3°C° 0.1 mm 3 m/s 760 mmHg 91%
    16:00 +4°C° 0.3 mm 3 m/s 761 mmHg 92%
    17:00 +4°C° 0.3 mm 3 m/s 761 mmHg 93%
    18:00 +4°C° 0.3 mm 3 m/s 762 mmHg 93%
    19:00 +4°C° 0.1 mm 4 m/s 762 mmHg 92%
    20:00 +4°C° 0.1 mm 4 m/s 763 mmHg 90%
    21:00 +3°C° 0.1 mm 5 m/s 763 mmHg 89%
    22:00 +3°C° 0.2 mm 6 m/s 763 mmHg 88%
    23:00 +3°C° 0.2 mm 7 m/s 764 mmHg 87%

    21 Janvier, Lundi

    Heure Température Précipitation Vent Pression Humidité
    00:00 +3°C° 0.2 mm 7 m/s 764 mmHg 85%
    01:00 +2°C° 0.1 mm 8 m/s 764 mmHg 82%
    02:00 +2°C° 0.1 mm 8 m/s 764 mmHg 79%
    03:00 +1°C° 0.1 mm 8 m/s 764 mmHg 75%
    04:00 +2°C° 0.1 mm 7 m/s 764 mmHg 76%
    05:00 +2°C° 0.1 mm 7 m/s 764 mmHg 77%
    06:00 0°C° 0.1 mm 7 m/s 764 mmHg 77%
    07:00 +2°C° 0.1 mm 7 m/s 764 mmHg 77%
    08:00 +2°C° 0.1 mm 7 m/s 764 mmHg 76%
    09:00 +2°C° 0.1 mm 7 m/s 765 mmHg 75%
    10:00 +3°C° 0.1 mm 7 m/s 764 mmHg 74%
    11:00 +3°C° 0.1 mm 7 m/s 764 mmHg 72%
    12:00 +4°C° 0.1 mm 7 m/s 764 mmHg 70%
    13:00 +3°C° 0 mm 6 m/s 764 mmHg 71%
    14:00 +3°C° 0 mm 6 m/s 763 mmHg 73%
    15:00 +3°C° 0 mm 5 m/s 762 mmHg 74%
    16:00 +3°C° 0 mm 4 m/s 762 mmHg 75%
    17:00 +1°C° 0 mm 4 m/s 762 mmHg 76%
    18:00 +1°C° 0 mm 3 m/s 762 mmHg 77%
    19:00 +1°C° 0 mm 3 m/s 761 mmHg 78%
    20:00 -1°C° 0 mm 4 m/s 761 mmHg 79%
    21:00 -1°C° 0 mm 4 m/s 760 mmHg 80%
    22:00 -1°C° 0 mm 4 m/s 759 mmHg 80%
    23:00 -1°C° 0 mm 5 m/s 758 mmHg 80%

    22 Janvier, Mardi

    Heure Température Précipitation Vent Pression Humidité
    00:00 -1°C° 0 mm 5 m/s 757 mmHg 80%
    01:00 -2°C° 0 mm 6 m/s 756 mmHg 81%
    02:00 -2°C° 0 mm 6 m/s 755 mmHg 82%
    03:00 -2°C° 0 mm 6 m/s 754 mmHg 83%
    04:00 -2°C° 0 mm 6 m/s 753 mmHg 83%
    05:00 -2°C° 0 mm 6 m/s 753 mmHg 83%
    06:00 -2°C° 0 mm 6 m/s 752 mmHg 84%
    07:00 -2°C° 0 mm 6 m/s 751 mmHg 83%
    08:00 -2°C° 0 mm 6 m/s 751 mmHg 83%
    09:00 -2°C° 0 mm 6 m/s 751 mmHg 82%
    10:00 -1°C° 0 mm 6 m/s 751 mmHg 80%
    11:00 +1°C° 0 mm 6 m/s 750 mmHg 77%
    12:00 +1°C° 0 mm 6 m/s 750 mmHg 75%
    13:00 +1°C° 0 mm 5 m/s 750 mmHg 74%
    14:00 +1°C° 0 mm 5 m/s 750 mmHg 73%
    15:00 +1°C° 0 mm 5 m/s 750 mmHg 72%
    16:00 +1°C° 0 mm 5 m/s 750 mmHg 74%
    17:00 0°C° 0 mm 5 m/s 750 mmHg 76%
    18:00 -1°C° 0 mm 5 m/s 750 mmHg 77%
    19:00 -1°C° 0 mm 5 m/s 750 mmHg 79%
    20:00 -2°C° 0 mm 4 m/s 750 mmHg 81%
    21:00 -2°C° 0 mm 4 m/s 750 mmHg 82%
    22:00 -2°C° 0 mm 4 m/s 750 mmHg 83%
    23:00 -2°C° 0 mm 4 m/s 751 mmHg 83%
    Voir plus